| time (UTC) | temp C | wind direction | speed KPH | gust KPH | rain 1hr cm | rain 24hr cm | rain mn cm | humidity % | barometer mb |
| 20260507022828 | 17 | 304 | 9.7 | 24.1 | 0.00 | 0.00 | 0.00 | 81 | 1015.0 |
| 20260507022108 | 17 | 337 | 14.5 | 22.5 | 0.00 | 0.00 | 0.00 | 80 | 1015.1 |
| 20260507021610 | 17 | 338 | 14.5 | 24.1 | 0.00 | 0.00 | 0.00 | 81 | 1015.1 |
| 20260507021108 | 17 | 5 | 16.1 | 24.1 | 0.00 | 0.00 | 0.00 | 79 | 1015.0 |
| 20260507020608 | 17 | 355 | 14.5 | 25.7 | 0.00 | 0.00 | 0.00 | 79 | 1015.0 |
| 20260507020108 | 17 | 350 | 16.1 | 25.7 | 0.00 | 0.00 | 0.00 | 78 | 1015.1 |
| 20260507015608 | 17 | 349 | 17.7 | 27.4 | 0.00 | 0.00 | 0.00 | 76 | 1014.9 |
| 20260507015109 | 18 | 353 | 17.7 | 27.4 | 0.00 | 0.00 | 0.00 | 77 | 1014.8 |
| 20260507014606 | 18 | 4 | 20.9 | 25.7 | 0.00 | 0.00 | 0.00 | 75 | 1014.9 |
| 20260507014107 | 18 | 336 | 16.1 | 24.1 | 0.00 | 0.00 | 0.00 | 77 | 1014.8 |
| 20260507013609 | 18 | 354 | 17.7 | 20.9 | 0.00 | 0.00 | 0.00 | 76 | 1014.9 |
| 20260507013110 | 18 | 314 | 12.9 | 14.5 | 0.00 | 0.00 | 0.00 | 77 | 1014.9 |
| 20260507012608 | 18 | 253 | 4.8 | 19.3 | 0.00 | 0.00 | 0.00 | 77 | 1014.9 |
| 20260507012106 | 18 | 270 | 3.2 | 19.3 | 0.00 | 0.00 | 0.00 | 77 | 1014.9 |
| 20260507011608 | 18 | 8 | 6.4 | 14.5 | 0.00 | 0.00 | 0.00 | 76 | 1014.9 |
| 20260507011107 | 18 | 335 | 6.4 | 16.1 | 0.00 | 0.00 | 0.00 | 76 | 1014.9 |
| 20260507010829 | 18 | 251 | 3.2 | 19.3 | 0.00 | 0.00 | 0.00 | 76 | 1014.8 |
| 20260507010106 | 18 | 295 | 9.7 | 19.3 | 0.00 | 0.00 | 0.00 | 75 | 1014.8 |
| 20260507005825 | 18 | 319 | 9.7 | 16.1 | 0.00 | 0.00 | 0.00 | 74 | 1014.8 |
| 20260507005107 | 18 | 327 | 8.0 | 16.1 | 0.00 | 0.00 | 0.00 | 75 | 1014.8 |
| 20260507004606 | 18 | 268 | 9.7 | 16.1 | 0.00 | 0.00 | 0.00 | 74 | 1014.8 |
| 20260507004107 | 18 | 335 | 4.8 | 14.5 | 0.00 | 0.00 | 0.00 | 74 | 1014.8 |
| 20260507003607 | 18 | 278 | 4.8 | 19.3 | 0.00 | 0.00 | 0.00 | 72 | 1014.8 |
| 20260507003106 | 18 | 265 | 8.0 | 19.3 | 0.00 | 0.00 | 0.00 | 73 | 1014.7 |
| 20260507002606 | 18 | 269 | 6.4 | 16.1 | 0.00 | 0.00 | 0.00 | 74 | 1014.7 |
| 20260507002105 | 18 | 314 | 11.3 | 19.3 | 0.00 | 0.00 | 0.00 | 73 | 1014.7 |
| 20260507001826 | 18 | 260 | 6.4 | 19.3 | 0.00 | 0.00 | 0.00 | 73 | 1014.6 |
| 20260507001107 | 18 | 339 | 1.6 | 19.3 | 0.00 | 0.00 | 0.00 | 74 | 1014.7 |
| 20260507000830 | 18 | 249 | 9.7 | 19.3 | 0.00 | 0.00 | 0.00 | 73 | 1014.6 |
| 20260507000105 | 19 | 287 | 9.7 | 16.1 | 0.00 | 0.00 | 0.00 | 74 | 1014.6 |
| 20260506235605 | 18 | 293 | 8.0 | 22.5 | 0.00 | 0.00 | 0.00 | 72 | 1014.6 |
| 20260506235325 | 18 | 271 | 11.3 | 22.5 | 0.00 | 0.00 | 0.00 | 74 | 1014.6 |
| 20260506234605 | 18 | 310 | 8.0 | 19.3 | 0.00 | 0.00 | 0.00 | 73 | 1014.5 |
| 20260506234105 | 18 | 287 | 11.3 | 16.1 | 0.00 | 0.00 | 0.00 | 70 | 1014.6 |
| 20260506233604 | 18 | 249 | 6.4 | 16.1 | 0.00 | 0.00 | 0.00 | 72 | 1014.6 |
| 20260506233108 | 18 | 278 | 6.4 | 25.7 | 0.00 | 0.00 | 0.00 | 73 | 1014.6 |
| 20260506232605 | 18 | 303 | 8.0 | 25.7 | 0.00 | 0.00 | 0.00 | 73 | 1014.6 |
| 20260506232104 | 18 | 31 | 14.5 | 22.5 | 0.00 | 0.00 | 0.00 | 73 | 1014.6 |
| 20260506231604 | 18 | 256 | 1.6 | 19.3 | 0.00 | 0.00 | 0.00 | 72 | 1014.6 |
| 20260506231105 | 18 | 315 | 8.0 | 20.9 | 0.00 | 0.00 | 0.00 | 71 | 1014.7 |
| 20260506230605 | 18 | 248 | 4.8 | 20.9 | 0.00 | 0.00 | 0.00 | 72 | 1014.7 |
| 20260506230104 | 18 | 299 | 16.1 | 24.1 | 0.00 | 0.00 | 0.00 | 74 | 1014.7 |
| 20260506225826 | 18 | 333 | 12.9 | 24.1 | 0.00 | 0.00 | 0.00 | 73 | 1014.7 |
| 20260506225106 | 18 | 257 | 12.9 | 24.1 | 0.00 | 0.00 | 0.00 | 72 | 1014.9 |
| 20260506224605 | 18 | 348 | 8.0 | 24.1 | 0.00 | 0.00 | 0.00 | 73 | 1014.7 |
| 20260506224104 | 18 | 264 | 8.0 | 22.5 | 0.00 | 0.00 | 0.00 | 72 | 1014.9 |
| 20260506223605 | 18 | 278 | 8.0 | 22.5 | 0.00 | 0.00 | 0.00 | 72 | 1014.9 |
| 20260506223105 | 18 | 230 | 9.7 | 20.9 | 0.00 | 0.00 | 0.00 | 72 | 1014.9 |
| 20260506222606 | 18 | 293 | 16.1 | 22.5 | 0.00 | 0.00 | 0.00 | 72 | 1015.0 |
| 20260506222324 | 18 | 297 | 8.0 | 22.5 | 0.00 | 0.00 | 0.00 | 72 | 1015.0 |
| 20260506221602 | 18 | 270 | 9.7 | 20.9 | 0.00 | 0.00 | 0.00 | 71 | 1015.0 |
| 20260506221104 | 18 | 315 | 12.9 | 22.5 | 0.00 | 0.00 | 0.00 | 70 | 1015.1 |
| 20260506220603 | 18 | 293 | 11.3 | 22.5 | 0.00 | 0.00 | 0.00 | 70 | 1015.1 |
| 20260506220320 | 18 | 287 | 6.4 | 20.9 | 0.00 | 0.00 | 0.00 | 70 | 1015.1 |
| 20260506215603 | 18 | 348 | 9.7 | 20.9 | 0.00 | 0.00 | 0.00 | 69 | 1015.2 |
| 20260506215104 | 18 | 281 | 11.3 | 20.9 | 0.00 | 0.00 | 0.00 | 70 | 1015.3 |
| 20260506214605 | 18 | 335 | 16.1 | 20.9 | 0.00 | 0.00 | 0.00 | 68 | 1015.3 |
| 20260506214102 | 18 | 337 | 6.4 | 20.9 | 0.00 | 0.00 | 0.00 | 69 | 1015.4 |
| 20260506213602 | 18 | 14 | 8.0 | 20.9 | 0.00 | 0.00 | 0.00 | 67 | 1015.4 |
| 20260506213104 | 18 | 245 | 11.3 | 20.9 | 0.00 | 0.00 | 0.00 | 67 | 1015.4 |
| 20260506212603 | 18 | 340 | 12.9 | 20.9 | 0.00 | 0.00 | 0.00 | 68 | 1015.5 |
| 20260506212102 | 18 | 281 | 9.7 | 19.3 | 0.00 | 0.00 | 0.00 | 68 | 1015.4 |
| 20260506211826 | 18 | 272 | 4.8 | 19.3 | 0.00 | 0.00 | 0.00 | 69 | 1015.5 |
| 20260506211103 | 18 | 330 | 8.0 | 19.3 | 0.00 | 0.00 | 0.00 | 70 | 1015.5 |
| 20260506210604 | 18 | 264 | 11.3 | 19.3 | 0.00 | 0.00 | 0.00 | 67 | 1015.6 |
| 20260506205602 | 18 | 341 | 4.8 | 19.3 | 0.00 | 0.00 | 0.00 | 69 | 1015.6 |
| 20260506205102 | 18 | 326 | 9.7 | 19.3 | 0.00 | 0.00 | 0.00 | 68 | 1015.5 |
| 20260506204601 | 18 | 244 | 8.0 | 20.9 | 0.00 | 0.00 | 0.00 | 69 | 1015.6 |
| 20260506203601 | 18 | 289 | 6.4 | 22.5 | 0.00 | 0.00 | 0.00 | 68 | 1015.7 |
| 20260506203324 | 18 | 292 | 6.4 | 24.1 | 0.00 | 0.00 | 0.00 | 68 | 1015.7 |
| 20260506202602 | 18 | 324 | 9.7 | 25.7 | 0.00 | 0.00 | 0.00 | 69 | 1015.7 |
| 20260506202102 | 18 | 271 | 14.5 | 25.7 | 0.00 | 0.00 | 0.00 | 69 | 1015.6 |
| 20260506201600 | 18 | 301 | 11.3 | 25.7 | 0.00 | 0.00 | 0.00 | 68 | 1015.7 |
| 20260506201100 | 18 | 34 | 8.0 | 25.7 | 0.00 | 0.00 | 0.00 | 68 | 1015.7 |
| 20260506200602 | 18 | 275 | 12.9 | 25.7 | 0.00 | 0.00 | 0.00 | 67 | 1015.7 |
| 20260506200328 | 18 | 340 | 8.0 | 24.1 | 0.00 | 0.00 | 0.00 | 70 | 1015.8 |
| 20260506195820 | 18 | 279 | 9.7 | 19.3 | 0.00 | 0.00 | 0.00 | 69 | 1015.7 |
| 20260506195059 | 18 | 231 | 11.3 | 20.9 | 0.00 | 0.00 | 0.00 | 69 | 1015.9 |
| 20260506194601 | 18 | 293 | 8.0 | 22.5 | 0.00 | 0.00 | 0.00 | 68 | 1015.8 |
| 20260506194101 | 18 | 346 | 16.1 | 22.5 | 0.00 | 0.00 | 0.00 | 69 | 1015.9 |
| 20260506193559 | 18 | 338 | 4.8 | 20.9 | 0.00 | 0.00 | 0.00 | 67 | 1016.0 |
| 20260506193059 | 18 | 232 | 4.8 | 20.9 | 0.00 | 0.00 | 0.00 | 66 | 1016.1 |
| 20260506192602 | 18 | 299 | 11.3 | 20.9 | 0.00 | 0.00 | 0.00 | 66 | 1016.1 |
| 20260506192319 | 18 | 292 | 6.4 | 19.3 | 0.00 | 0.00 | 0.00 | 66 | 1016.1 |
| 20260506191600 | 18 | 225 | 6.4 | 19.3 | 0.00 | 0.00 | 0.00 | 66 | 1016.2 |
| 20260506190600 | 18 | 241 | 6.4 | 22.5 | 0.00 | 0.00 | 0.00 | 66 | 1016.1 |
| 20260506190100 | 18 | 265 | 8.0 | 22.5 | 0.00 | 0.00 | 0.00 | 67 | 1016.2 |
| 20260506185558 | 19 | 331 | 8.0 | 20.9 | 0.00 | 0.00 | 0.00 | 67 | 1016.2 |
| 20260506185059 | 19 | 271 | 9.7 | 16.1 | 0.00 | 0.00 | 0.00 | 67 | 1016.2 |
| 20260506184600 | 19 | 329 | 14.5 | 16.1 | 0.00 | 0.00 | 0.00 | 66 | 1016.3 |
| 20260506184059 | 19 | 296 | 6.4 | 20.9 | 0.00 | 0.00 | 0.00 | 66 | 1016.3 |
| 20260506183558 | 19 | 289 | 4.8 | 20.9 | 0.00 | 0.00 | 0.00 | 66 | 1016.3 |
| 20260506183058 | 19 | 350 | 6.4 | 16.1 | 0.00 | 0.00 | 0.00 | 65 | 1016.3 |
| 20260506182559 | 19 | 280 | 8.0 | 16.1 | 0.00 | 0.00 | 0.00 | 66 | 1016.4 |
| 20260506181558 | 18 | 321 | 9.7 | 12.9 | 0.00 | 0.00 | 0.00 | 64 | 1016.5 |
| 20260506181057 | 18 | 291 | 4.8 | 14.5 | 0.00 | 0.00 | 0.00 | 65 | 1016.6 |
| 20260506180600 | 18 | 219 | 11.3 | 14.5 | 0.00 | 0.00 | 0.00 | 67 | 1016.6 |
| 20260506180058 | 18 | 325 | 1.6 | 14.5 | 0.00 | 0.00 | 0.00 | 67 | 1016.5 |
| 20260506175558 | 18 | 299 | 1.6 | 12.9 | 0.00 | 0.00 | 0.00 | 65 | 1016.6 |
| 20260506175057 | 18 | 347 | 6.4 | 12.9 | 0.00 | 0.00 | 0.00 | 65 | 1016.7 |
| 20260506174557 | 18 | 285 | 8.0 | 19.3 | 0.00 | 0.00 | 0.00 | 67 | 1016.7 |
| 20260506174059 | 18 | 314 | 4.8 | 19.3 | 0.00 | 0.00 | 0.00 | 67 | 1016.7 |
| 20260506173557 | 18 | 349 | 9.7 | 12.9 | 0.00 | 0.00 | 0.00 | 68 | 1016.7 |
| 20260506173057 | 18 | 246 | 8.0 | 12.9 | 0.00 | 0.00 | 0.00 | 66 | 1016.7 |
| 20260506172558 | 18 | 352 | 6.4 | 14.5 | 0.00 | 0.00 | 0.00 | 68 | 1016.8 |
| 20260506172058 | 18 | 259 | 4.8 | 19.3 | 0.00 | 0.00 | 0.00 | 68 | 1017.0 |
| 20260506171558 | 18 | 313 | 9.7 | 19.3 | 0.00 | 0.00 | 0.00 | 68 | 1016.9 |
| 20260506171058 | 18 | 248 | 6.4 | 12.9 | 0.00 | 0.00 | 0.00 | 66 | 1016.9 |
| 20260506170817 | 18 | 264 | 4.8 | 12.9 | 0.00 | 0.00 | 0.00 | 66 | 1017.0 |
| 20260506170058 | 18 | 267 | 8.0 | 12.9 | 0.00 | 0.00 | 0.00 | 66 | 1016.8 |
| 20260506165557 | 18 | 299 | 4.8 | 12.9 | 0.00 | 0.00 | 0.00 | 66 | 1016.8 |
| 20260506165055 | 18 | 344 | 4.8 | 12.9 | 0.00 | 0.00 | 0.00 | 66 | 1016.8 |
| 20260506164556 | 18 | 259 | 1.6 | 9.7 | 0.00 | 0.00 | 0.00 | 64 | 1016.7 |
| 20260506164318 | 17 | 256 | 3.2 | 9.7 | 0.00 | 0.00 | 0.00 | 66 | 1016.8 |
| 20260506163557 | 17 | 303 | 6.4 | 9.7 | 0.00 | 0.00 | 0.00 | 67 | 1016.8 |
| 20260506163056 | 17 | 247 | 3.2 | 9.7 | 0.00 | 0.00 | 0.00 | 64 | 1016.8 |
| 20260506162555 | 16 | 286 | 4.8 | 4.8 | 0.00 | 0.00 | 0.00 | 68 | 1016.9 |
| 20260506162056 | 16 | 284 | 1.6 | 4.8 | 0.00 | 0.00 | 0.00 | 69 | 1016.8 |
| 20260506161556 | 16 | 11 | 3.2 | 16.1 | 0.00 | 0.00 | 0.00 | 69 | 1016.9 |
| 20260506161055 | 16 | 42 | 4.8 | 16.1 | 0.00 | 0.00 | 0.00 | 70 | 1016.9 |
| 20260506160556 | 16 | 298 | 1.6 | 9.7 | 0.00 | 0.00 | 0.00 | 70 | 1016.8 |
| 20260506160325 | 16 | 42 | 6.4 | 9.7 | 0.00 | 0.00 | 0.00 | 71 | 1016.8 |
| 20260506155558 | 16 | 29 | 4.8 | 9.7 | 0.00 | 0.00 | 0.00 | 71 | 1016.8 |
| 20260506155054 | 16 | 354 | 3.2 | 11.3 | 0.00 | 0.00 | 0.00 | 71 | 1016.8 |
| 20260506154555 | 16 | 309 | 4.8 | 11.3 | 0.00 | 0.00 | 0.00 | 72 | 1016.8 |
| 20260506154055 | 15 | 352 | 1.6 | 12.9 | 0.00 | 0.00 | 0.00 | 72 | 1016.8 |
| 20260506153555 | 15 | 348 | 3.2 | 12.9 | 0.00 | 0.00 | 0.00 | 73 | 1016.9 |
| 20260506153055 | 15 | 289 | 0.0 | 11.3 | 0.00 | 0.00 | 0.00 | 71 | 1016.9 |
| 20260506152555 | 15 | 343 | 9.7 | 11.3 | 0.00 | 0.00 | 0.00 | 71 | 1016.9 |
| 20260506152056 | 15 | 349 | 1.6 | 9.7 | 0.00 | 0.00 | 0.00 | 73 | 1016.9 |
| 20260506151555 | 14 | 294 | 1.6 | 9.7 | 0.00 | 0.00 | 0.00 | 73 | 1017.0 |
| 20260506151053 | 14 | 1 | 3.2 | 9.7 | 0.00 | 0.00 | 0.00 | 74 | 1016.9 |
| 20260506150553 | 14 | 12 | 3.2 | 8.0 | 0.00 | 0.00 | 0.00 | 75 | 1017.0 |
| 20260506150056 | 13 | 359 | 3.2 | 8.0 | 0.00 | 0.00 | 0.00 | 76 | 1016.9 |
| 20260506145556 | 13 | 10 | 1.6 | 8.0 | 0.00 | 0.00 | 0.00 | 76 | 1016.9 |
| 20260506145054 | 13 | 357 | 3.2 | 8.0 | 0.00 | 0.00 | 0.00 | 77 | 1016.9 |
| 20260506144554 | 13 | 12 | 3.2 | 8.0 | 0.00 | 0.00 | 0.00 | 78 | 1016.8 |
| 20260506144053 | 13 | 16 | 3.2 | 8.0 | 0.00 | 0.00 | 0.00 | 78 | 1016.8 |
| 20260506143555 | 13 | 2 | 1.6 | 8.0 | 0.00 | 0.00 | 0.00 | 79 | 1016.8 |
| 20260506143055 | 12 | 16 | 3.2 | 8.0 | 0.00 | 0.00 | 0.00 | 80 | 1016.8 |
| 20260506142553 | 12 | 18 | 3.2 | 8.0 | 0.00 | 0.00 | 0.00 | 81 | 1016.8 |
| 20260506142054 | 12 | 7 | 1.6 | 8.0 | 0.00 | 0.00 | 0.00 | 82 | 1016.8 |
| 20260506141554 | 12 | 330 | 4.8 | 8.0 | 0.00 | 0.00 | 0.00 | 82 | 1016.8 |
| 20260506141053 | 12 | 16 | 4.8 | 8.0 | 0.00 | 0.00 | 0.00 | 83 | 1016.7 |
| 20260506140554 | 12 | 22 | 4.8 | 8.0 | 0.00 | 0.00 | 0.00 | 83 | 1016.7 |
| 20260506140052 | 12 | 4 | 1.6 | 4.8 | 0.00 | 0.00 | 0.00 | 84 | 1016.7 |
| 20260506135554 | 12 | 267 | 0.0 | 8.0 | 0.00 | 0.00 | 0.00 | 84 | 1016.7 |
| 20260506135053 | 12 | 289 | 1.6 | 8.0 | 0.00 | 0.00 | 0.00 | 84 | 1016.6 |
| 20260506134552 | 12 | 340 | 4.8 | 8.0 | 0.00 | 0.00 | 0.00 | 85 | 1016.6 |
| 20260506134052 | 12 | 271 | 0.0 | 8.0 | 0.00 | 0.00 | 0.00 | 85 | 1016.6 |
| 20260506133826 | 12 | 318 | 4.8 | 9.7 | 0.00 | 0.00 | 0.00 | 85 | 1016.5 |
| 20260506133053 | 12 | 10 | 3.2 | 9.7 | 0.00 | 0.00 | 0.00 | 85 | 1016.5 |
| 20260506132811 | 12 | 327 | 3.2 | 8.0 | 0.00 | 0.00 | 0.00 | 84 | 1016.3 |
| 20260506132051 | 12 | 226 | 0.0 | 4.8 | 0.00 | 0.00 | 0.00 | 84 | 1016.4 |
| 20260506131552 | 12 | 307 | 3.2 | 4.8 | 0.00 | 0.00 | 0.00 | 84 | 1016.3 |
| 20260506131052 | 12 | 278 | 0.0 | 4.8 | 0.00 | 0.00 | 0.00 | 84 | 1016.3 |
| 20260506130551 | 12 | 286 | 1.6 | 4.8 | 0.00 | 0.00 | 0.00 | 84 | 1016.3 |
| 20260506130319 | 12 | 356 | 1.6 | 12.9 | 0.00 | 0.00 | 0.00 | 84 | 1016.1 |
| 20260506125553 | 12 | 327 | 3.2 | 12.9 | 0.00 | 0.00 | 0.00 | 84 | 1016.2 |
| 20260506125052 | 12 | 280 | 1.6 | 1.6 | 0.00 | 0.00 | 0.00 | 83 | 1016.1 |
| 20260506124550 | 12 | 260 | 0.0 | 3.2 | 0.00 | 0.00 | 0.00 | 83 | 1016.0 |
| 20260506124050 | 12 | 263 | 0.0 | 4.8 | 0.00 | 0.00 | 0.00 | 82 | 1016.1 |
| 20260506123553 | 12 | 230 | 3.2 | 4.8 | 0.00 | 0.00 | 0.00 | 82 | 1016.1 |
| 20260506123052 | 12 | 217 | 1.6 | 4.8 | 0.00 | 0.00 | 0.00 | 82 | 1016.0 |
| 20260506122551 | 12 | 304 | 0.0 | 9.7 | 0.00 | 0.00 | 0.00 | 82 | 1016.0 |
| 20260506122050 | 12 | 339 | 1.6 | 11.3 | 0.00 | 0.00 | 0.00 | 83 | 1016.0 |
| 20260506121550 | 12 | 358 | 4.8 | 11.3 | 0.00 | 0.00 | 0.00 | 82 | 1016.0 |
| 20260506121052 | 13 | 267 | 1.6 | 3.2 | 0.00 | 0.00 | 0.00 | 81 | 1015.9 |
| 20260506120811 | 13 | 236 | 1.6 | 8.0 | 0.00 | 0.00 | 0.00 | 81 | 1015.8 |
| 20260506120050 | 13 | 304 | 1.6 | 8.0 | 0.00 | 0.00 | 0.00 | 81 | 1015.9 |
| 20260506115550 | 13 | 33 | 6.4 | 8.0 | 0.00 | 0.00 | 0.00 | 81 | 1015.9 |
| 20260506115051 | 13 | 268 | 0.0 | 3.2 | 0.00 | 0.00 | 0.00 | 79 | 1015.9 |
| 20260506114549 | 13 | 206 | 1.6 | 3.2 | 0.00 | 0.00 | 0.00 | 80 | 1015.8 |
| 20260506114049 | 13 | 219 | 3.2 | 9.7 | 0.00 | 0.00 | 0.00 | 80 | 1015.8 |
| 20260506113550 | 13 | 348 | 4.8 | 9.7 | 0.00 | 0.00 | 0.00 | 81 | 1015.9 |
| 20260506113050 | 13 | 16 | 3.2 | 8.0 | 0.00 | 0.00 | 0.00 | 81 | 1016.0 |
| 20260506112550 | 13 | 230 | 1.6 | 3.2 | 0.00 | 0.00 | 0.00 | 78 | 1015.9 |
| 20260506112050 | 13 | 252 | 0.0 | 3.2 | 0.00 | 0.00 | 0.00 | 78 | 1015.9 |
| 20260506111549 | 13 | 186 | 3.2 | 3.2 | 0.00 | 0.00 | 0.00 | 78 | 1015.9 |
| 20260506111050 | 13 | 275 | 0.0 | 4.8 | 0.00 | 0.00 | 0.00 | 80 | 1015.9 |
| 20260506110550 | 13 | 289 | 0.0 | 8.0 | 0.00 | 0.00 | 0.00 | 81 | 1015.9 |
| 20260506105548 | 13 | 257 | 0.0 | 4.8 | 0.00 | 0.00 | 0.00 | 81 | 1015.9 |
| 20260506105051 | 13 | 324 | 4.8 | 4.8 | 0.00 | 0.00 | 0.00 | 81 | 1015.9 |
| 20260506104549 | 13 | 265 | 0.0 | 4.8 | 0.00 | 0.00 | 0.00 | 81 | 1015.8 |
| 20260506104308 | 13 | 268 | 0.0 | 4.8 | 0.00 | 0.00 | 0.00 | 81 | 1015.9 |
| 20260506103547 | 13 | 290 | 0.0 | 4.8 | 0.00 | 0.00 | 0.00 | 80 | 1015.7 |
| 20260506103312 | 13 | 275 | 3.2 | 3.2 | 0.00 | 0.00 | 0.00 | 79 | 1015.7 |
| 20260506102550 | 13 | 196 | 3.2 | 9.7 | 0.00 | 0.00 | 0.00 | 78 | 1015.7 |
| 20260506102047 | 13 | 267 | 0.0 | 9.7 | 0.00 | 0.00 | 0.00 | 81 | 1015.8 |
| 20260506101547 | 13 | 25 | 4.8 | 8.0 | 0.00 | 0.00 | 0.00 | 81 | 1015.8 |
| 20260506101048 | 13 | 4 | 3.2 | 3.2 | 0.00 | 0.00 | 0.00 | 81 | 1015.7 |
| 20260506100547 | 13 | 261 | 0.0 | 0.0 | 0.00 | 0.00 | 0.00 | 79 | 1015.7 |
| 20260506095948 | 13 | 244 | 1.6 | 3.2 | 0.00 | 0.30 | 0.00 | 80 | 1015.6 |
| 20260506095448 | 13 | 300 | 0.0 | 3.2 | 0.00 | 0.30 | 0.00 | 80 | 1015.6 |
| 20260506094950 | 13 | 229 | 0.0 | 4.8 | 0.00 | 0.30 | 0.00 | 78 | 1015.6 |
| 20260506094713 | 13 | 154 | 3.2 | 8.0 | 0.00 | 0.30 | 0.00 | 78 | 1015.6 |
| 20260506094207 | 13 | 337 | 0.0 | 8.0 | 0.00 | 0.30 | 0.00 | 81 | 1015.5 |
| 20260506092949 | 13 | 265 | 0.0 | 8.0 | 0.00 | 0.30 | 0.00 | 80 | 1015.5 |
| 20260506092449 | 13 | 316 | 1.6 | 8.0 | 0.00 | 0.30 | 0.00 | 81 | 1015.6 |
| 20260506091947 | 13 | 21 | 3.2 | 4.8 | 0.00 | 0.30 | 0.00 | 81 | 1015.6 |
| 20260506091447 | 13 | 337 | 1.6 | 4.8 | 0.00 | 0.30 | 0.00 | 81 | 1015.6 |
| 20260506090948 | 13 | 307 | 3.2 | 3.2 | 0.00 | 0.30 | 0.00 | 81 | 1015.7 |
| 20260506090449 | 13 | 268 | 0.0 | 4.8 | 0.00 | 0.30 | 0.00 | 81 | 1015.8 |
| 20260506085947 | 13 | 353 | 1.6 | 4.8 | 0.00 | 0.30 | 0.00 | 81 | 1015.7 |
| 20260506085448 | 13 | 253 | 0.0 | 0.0 | 0.00 | 0.30 | 0.00 | 79 | 1015.9 |
| 20260506084948 | 13 | 249 | 0.0 | 0.0 | 0.00 | 0.30 | 0.00 | 80 | 1016.0 |
| 20260506084449 | 13 | 272 | 0.0 | 1.6 | 0.00 | 0.30 | 0.00 | 80 | 1016.1 |
| 20260506083947 | 13 | 273 | 0.0 | 3.2 | 0.00 | 0.30 | 0.00 | 78 | 1016.0 |
| 20260506083445 | 13 | 250 | 0.0 | 3.2 | 0.00 | 0.30 | 0.00 | 77 | 1016.1 |
| 20260506082947 | 13 | 243 | 1.6 | 1.6 | 0.00 | 0.30 | 0.00 | 78 | 1016.1 |
| 20260506082448 | 13 | 242 | 1.6 | 1.6 | 0.00 | 0.30 | 0.00 | 78 | 1016.2 |
| 20260506081946 | 13 | 272 | 0.0 | 0.0 | 0.00 | 0.30 | 0.00 | 78 | 1016.2 |
| 20260506081447 | 13 | 273 | 0.0 | 1.6 | 0.00 | 0.30 | 0.00 | 78 | 1016.2 |
| 20260506080949 | 13 | 282 | 0.0 | 1.6 | 0.00 | 0.30 | 0.00 | 78 | 1016.3 |
| 20260506080447 | 13 | 281 | 1.6 | 1.6 | 0.00 | 0.30 | 0.00 | 78 | 1016.3 |
| 20260506073445 | 14 | 266 | 0.0 | 3.2 | 0.00 | 0.30 | 0.00 | 77 | 1016.4 |
| 20260506072944 | 14 | 276 | 1.6 | 4.8 | 0.00 | 0.30 | 0.00 | 76 | 1016.5 |
| 20260506072447 | 14 | 330 | 4.8 | 4.8 | 0.00 | 0.30 | 0.00 | 76 | 1016.5 |
| 20260506071945 | 14 | 282 | 0.0 | 3.2 | 0.00 | 0.30 | 0.00 | 76 | 1016.5 |
| 20260506071446 | 14 | 303 | 0.0 | 3.2 | 0.00 | 0.30 | 0.00 | 75 | 1016.4 |
| 20260506070944 | 14 | 265 | 0.0 | 1.6 | 0.00 | 0.30 | 0.00 | 75 | 1016.5 |
| 20260506070708 | 14 | 287 | 0.0 | 4.8 | 0.00 | 0.30 | 0.00 | 75 | 1016.4 |
| 20260506062446 | 15 | 270 | 0.0 | 0.0 | 0.00 | 0.30 | 0.51 | 74 | 1016.1 |
| 20260506061945 | 15 | 270 | 0.0 | 0.0 | 0.00 | 0.30 | 0.51 | 73 | 1016.1 |
| 20260506061443 | 15 | 271 | 0.0 | 0.0 | 0.00 | 0.30 | 0.51 | 73 | 1016.1 |
| 20260506060943 | 15 | 263 | 0.0 | 3.2 | 0.00 | 0.30 | 0.51 | 73 | 1016.1 |
| 20260506060445 | 15 | 263 | 0.0 | 3.2 | 0.00 | 0.30 | 0.51 | 73 | 1016.1 |
| 20260506050943 | 15 | 265 | 1.6 | 8.0 | 0.00 | 0.30 | 0.51 | 72 | 1016.0 |
| 20260506050444 | 15 | 263 | 3.2 | 8.0 | 0.00 | 0.30 | 0.51 | 73 | 1016.0 |
| 20260506044441 | 15 | 248 | 0.0 | 4.8 | 0.00 | 0.30 | 0.51 | 73 | 1015.8 |
| 20260506043943 | 15 | 254 | 0.0 | 8.0 | 0.00 | 0.30 | 0.51 | 72 | 1015.8 |
| 20260506043445 | 15 | 268 | 3.2 | 8.0 | 0.00 | 0.30 | 0.51 | 73 | 1015.8 |
| 20260506042941 | 15 | 286 | 4.8 | 8.0 | 0.00 | 0.30 | 0.51 | 72 | 1015.8 |
| 20260506042709 | 15 | 286 | 6.4 | 11.3 | 0.00 | 0.30 | 0.51 | 72 | 1015.8 |
| 20260506041943 | 15 | 282 | 1.6 | 11.3 | 0.00 | 0.30 | 0.51 | 73 | 1015.6 |
| 20260506041442 | 15 | 309 | 6.4 | 9.7 | 0.00 | 0.30 | 0.51 | 72 | 1015.5 |
| 20260506040941 | 15 | 268 | 3.2 | 9.7 | 0.00 | 0.30 | 0.51 | 72 | 1015.5 |
| 20260506040441 | 15 | 262 | 3.2 | 9.7 | 0.00 | 0.30 | 0.51 | 72 | 1015.4 |
| 20260506035942 | 15 | 315 | 8.0 | 9.7 | 0.00 | 0.30 | 0.51 | 72 | 1015.3 |
| 20260506035441 | 15 | 283 | 0.0 | 9.7 | 0.00 | 0.30 | 0.51 | 72 | 1015.3 |
| 20260506034941 | 15 | 320 | 6.4 | 9.7 | 0.00 | 0.30 | 0.51 | 72 | 1015.2 |
| 20260506034703 | 15 | 249 | 8.0 | 12.9 | 0.00 | 0.30 | 0.51 | 71 | 1015.1 |
| 20260506033942 | 15 | 224 | 4.8 | 12.9 | 0.00 | 0.30 | 0.51 | 70 | 1015.1 |
| 20260506033443 | 15 | 275 | 3.2 | 12.9 | 0.00 | 0.30 | 0.51 | 70 | 1015.0 |
| 20260506032941 | 15 | 290 | 4.8 | 14.5 | 0.00 | 0.30 | 0.51 | 70 | 1015.0 |
| 20260506032440 | 15 | 352 | 8.0 | 14.5 | 0.00 | 0.30 | 0.51 | 71 | 1014.8 |
| 20260506031942 | 15 | 332 | 9.7 | 12.9 | 0.00 | 0.30 | 0.51 | 71 | 1014.8 |
| 20260506031441 | 15 | 265 | 3.2 | 14.5 | 0.00 | 0.30 | 0.51 | 70 | 1014.8 |
| 20260506030938 | 15 | 342 | 11.3 | 14.5 | 0.00 | 0.30 | 0.51 | 70 | 1014.7 |
| 20260506030440 | 15 | 257 | 4.8 | 12.9 | 0.00 | 0.30 | 0.51 | 70 | 1014.6 |
| 20260506025941 | 15 | 335 | 4.8 | 16.1 | 0.00 | 0.30 | 0.51 | 70 | 1014.6 |
| 20260506025439 | 15 | 262 | 3.2 | 16.1 | 0.00 | 0.30 | 0.51 | 70 | 1014.5 |
| 20260506024938 | 15 | 311 | 6.4 | 14.5 | 0.00 | 0.30 | 0.51 | 71 | 1014.4 |
| 20260506024441 | 15 | 275 | 4.8 | 16.1 | 0.00 | 0.30 | 0.51 | 71 | 1014.4 |
| 20260506023939 | 15 | 306 | 11.3 | 16.1 | 0.00 | 0.30 | 0.51 | 71 | 1014.3 |